User: anonymous   Login
Location: Unspecified
(0.0000°N, 0.0000°E)
Time: 23:57:50
(UTC+00:00)
Language:

STARLINK-11642 [DTC] - Orbit

View from above orbital plane
View from above orbital plane
View from above satellite
View from above satellite

Ground track
Ground track

The orbit is defined by the following mean orbital elements,

1 63188U          26145.58380095 +.00000000 +00000-0 +11997-2 0 00004
2 63188  42.9981 216.4924 0001349  40.9523 319.1446 15.70822332    00
Epoch (UTC): 25 May 2026 14:00:40
Eccentricity: 0.0001349
inclination: 42.9981°
perigee height: 356 km
apogee height: 357 km
right ascension of ascending node: 216.4924°
argument of perigee: 40.9523°
revolutions per day: 15.70822332
mean anomaly at epoch: 319.1446°

The dashed part of the orbit path shows where the satellite is in the earth's shadow,  

DLR